Year,Month,Day,Hour,Minute,Value (Times are PST for temperature in C)
2021,06,27,00,00,27.20
2021,06,27,00,01,27.20
2021,06,27,00,02,27.10
2021,06,27,00,03,27.10
2021,06,27,00,04,27.10
2021,06,27,00,05,27.10
2021,06,27,00,06,27.10
2021,06,27,00,07,27.10
2021,06,27,00,08,27.10
2021,06,27,00,09,27.10
2021,06,27,00,10,27.10
2021,06,27,00,11,27.10
2021,06,27,00,12,27.10
2021,06,27,00,13,27.10
2021,06,27,00,14,27.10
2021,06,27,00,15,27.00
2021,06,27,00,16,27.00
2021,06,27,00,17,27.00
2021,06,27,00,18,27.00
2021,06,27,00,19,27.00
2021,06,27,00,20,27.00
2021,06,27,00,21,27.00
2021,06,27,00,22,26.90
2021,06,27,00,23,26.90
2021,06,27,00,24,26.90
2021,06,27,00,25,26.90
2021,06,27,00,26,26.90
2021,06,27,00,27,26.90
2021,06,27,00,28,26.90
2021,06,27,00,29,26.90
2021,06,27,00,30,26.90
2021,06,27,00,31,26.90
2021,06,27,00,32,26.90
2021,06,27,00,33,26.90
2021,06,27,00,34,26.80
2021,06,27,00,35,26.80
2021,06,27,00,36,26.80
2021,06,27,00,37,26.80
2021,06,27,00,38,26.80
2021,06,27,00,39,26.80
2021,06,27,00,40,26.80
2021,06,27,00,41,26.70
2021,06,27,00,42,26.70
2021,06,27,00,43,26.70
2021,06,27,00,44,26.70
2021,06,27,00,45,26.70
2021,06,27,00,46,26.70
2021,06,27,00,47,26.70
2021,06,27,00,48,26.70
2021,06,27,00,49,26.70
2021,06,27,00,50,26.70
2021,06,27,00,51,26.60
2021,06,27,00,52,26.60
2021,06,27,00,53,26.60
2021,06,27,00,54,26.60
2021,06,27,00,55,26.60
2021,06,27,00,56,26.60
2021,06,27,00,57,26.60
2021,06,27,00,58,26.50
2021,06,27,00,59,26.50
2021,06,27,01,00,26.50
2021,06,27,01,01,26.50
2021,06,27,01,02,26.50
2021,06,27,01,03,26.40
2021,06,27,01,04,26.40
2021,06,27,01,05,26.40
2021,06,27,01,06,26.40
2021,06,27,01,07,26.40
2021,06,27,01,08,26.30
2021,06,27,01,09,26.30
2021,06,27,01,10,26.30
2021,06,27,01,11,26.20
2021,06,27,01,12,26.20
2021,06,27,01,13,26.20
2021,06,27,01,14,26.10
2021,06,27,01,15,26.10
2021,06,27,01,16,26.10
2021,06,27,01,17,26.00
2021,06,27,01,18,25.90
2021,06,27,01,19,25.90
2021,06,27,01,20,25.80
2021,06,27,01,21,25.70
2021,06,27,01,22,25.60
2021,06,27,01,23,25.60
2021,06,27,01,24,25.50
2021,06,27,01,25,25.40
2021,06,27,01,26,25.40
2021,06,27,01,27,25.30
2021,06,27,01,28,25.30
2021,06,27,01,29,25.20
2021,06,27,01,30,25.20
2021,06,27,01,31,25.10
2021,06,27,01,32,25.10
2021,06,27,01,33,25.10
2021,06,27,01,34,25.10
2021,06,27,01,35,25.00
2021,06,27,01,36,25.00
2021,06,27,01,37,25.00
2021,06,27,01,38,24.90
2021,06,27,01,39,24.90
2021,06,27,01,40,24.90
2021,06,27,01,41,24.90
2021,06,27,01,42,24.80
2021,06,27,01,43,24.80
2021,06,27,01,44,24.80
2021,06,27,01,45,24.80
2021,06,27,01,46,24.80
2021,06,27,01,47,24.80
2021,06,27,01,48,24.80
2021,06,27,01,49,24.70
2021,06,27,01,50,24.70
2021,06,27,01,51,24.70
2021,06,27,01,52,24.70
2021,06,27,01,53,24.70
2021,06,27,01,54,24.70
2021,06,27,01,55,24.70
2021,06,27,01,56,24.70
2021,06,27,01,57,24.70
2021,06,27,01,58,24.70
2021,06,27,01,59,24.70
2021,06,27,02,00,24.70
2021,06,27,02,01,24.70
2021,06,27,02,02,24.70
2021,06,27,02,03,24.70
2021,06,27,02,04,24.70
2021,06,27,02,05,24.70
2021,06,27,02,06,24.80
2021,06,27,02,07,24.80
2021,06,27,02,08,24.80
2021,06,27,02,09,24.80
2021,06,27,02,10,24.80
2021,06,27,02,11,24.80
2021,06,27,02,12,24.80
2021,06,27,02,13,24.80
2021,06,27,02,14,24.80
2021,06,27,02,15,24.80
2021,06,27,02,16,24.80
2021,06,27,02,17,24.80
2021,06,27,02,18,24.80
2021,06,27,02,19,24.80
2021,06,27,02,20,24.80
2021,06,27,02,21,24.80
2021,06,27,02,22,24.80
2021,06,27,02,23,24.80
2021,06,27,02,24,24.80
2021,06,27,02,25,24.80
2021,06,27,02,26,24.80
2021,06,27,02,27,24.80
2021,06,27,02,28,24.80
2021,06,27,02,29,24.80
2021,06,27,02,30,24.80
2021,06,27,02,31,24.80
2021,06,27,02,32,24.80
2021,06,27,02,33,24.80
2021,06,27,02,34,24.80
2021,06,27,02,35,24.80
2021,06,27,02,36,24.80
2021,06,27,02,37,24.80
2021,06,27,02,38,24.80
2021,06,27,02,39,24.80
2021,06,27,02,40,24.80
2021,06,27,02,41,24.80
2021,06,27,02,42,24.80
2021,06,27,02,43,24.80
2021,06,27,02,44,24.80
2021,06,27,02,45,24.80
2021,06,27,02,46,24.80
2021,06,27,02,47,24.80
2021,06,27,02,48,24.80
2021,06,27,02,49,24.80
2021,06,27,02,50,24.80
2021,06,27,02,51,24.80
2021,06,27,02,52,24.80
2021,06,27,02,53,24.80
2021,06,27,02,54,24.80
2021,06,27,02,55,24.80
2021,06,27,02,56,24.90
2021,06,27,02,57,24.90
2021,06,27,02,58,24.90
2021,06,27,02,59,24.90
2021,06,27,03,00,24.90
2021,06,27,03,01,24.90
2021,06,27,03,02,24.90
2021,06,27,03,03,24.90
2021,06,27,03,04,24.90
2021,06,27,03,05,24.90
2021,06,27,03,06,24.90
2021,06,27,03,07,24.90
2021,06,27,03,08,24.90
2021,06,27,03,09,24.90
2021,06,27,03,10,24.80
2021,06,27,03,11,24.80
2021,06,27,03,12,24.80
2021,06,27,03,13,24.80
2021,06,27,03,14,24.80
2021,06,27,03,15,24.80
2021,06,27,03,16,24.80
2021,06,27,03,17,24.80
2021,06,27,03,18,24.80
2021,06,27,03,19,24.70
2021,06,27,03,20,24.70
2021,06,27,03,21,24.70
2021,06,27,03,22,24.70
2021,06,27,03,23,24.70
2021,06,27,03,24,24.70
2021,06,27,03,25,24.70
2021,06,27,03,26,24.70
2021,06,27,03,27,24.60
2021,06,27,03,28,24.60
2021,06,27,03,29,24.60
2021,06,27,03,30,24.60
2021,06,27,03,31,24.60
2021,06,27,03,32,24.50
2021,06,27,03,33,24.50
2021,06,27,03,34,24.40
2021,06,27,03,35,24.40
2021,06,27,03,36,24.40
2021,06,27,03,37,24.30
2021,06,27,03,38,24.30
2021,06,27,03,39,24.30
2021,06,27,03,40,24.30
2021,06,27,03,41,24.20
2021,06,27,03,42,24.20
2021,06,27,03,43,24.10
2021,06,27,03,44,24.10
2021,06,27,03,45,24.10
2021,06,27,03,46,24.10
2021,06,27,03,47,24.00
2021,06,27,03,48,24.00
2021,06,27,03,49,23.90
2021,06,27,03,50,23.90
2021,06,27,03,51,23.90
2021,06,27,03,52,23.90
2021,06,27,03,53,23.80
2021,06,27,03,54,23.80
2021,06,27,03,55,23.80
2021,06,27,03,56,23.80
2021,06,27,03,57,23.80
2021,06,27,03,58,23.80
2021,06,27,03,59,23.80
2021,06,27,04,00,23.80
2021,06,27,04,01,23.80
2021,06,27,04,02,23.80
2021,06,27,04,03,23.80
2021,06,27,04,04,23.80
2021,06,27,04,05,23.80
2021,06,27,04,06,23.80
2021,06,27,04,07,23.80
2021,06,27,04,08,23.80
2021,06,27,04,09,23.80
2021,06,27,04,10,23.80
2021,06,27,04,11,23.80
2021,06,27,04,12,23.90
2021,06,27,04,13,23.90
2021,06,27,04,14,23.90
2021,06,27,04,15,23.90
2021,06,27,04,16,23.90
2021,06,27,04,17,23.90
2021,06,27,04,18,23.90
2021,06,27,04,19,23.90
2021,06,27,04,20,23.90
2021,06,27,04,21,23.90
2021,06,27,04,22,23.90
2021,06,27,04,23,23.90
2021,06,27,04,24,23.90
2021,06,27,04,25,23.90
2021,06,27,04,26,23.90
2021,06,27,04,27,23.90
2021,06,27,04,28,23.80
2021,06,27,04,29,23.80
2021,06,27,04,30,23.80
2021,06,27,04,31,23.80
2021,06,27,04,32,23.80
2021,06,27,04,33,23.80
2021,06,27,04,34,23.70
2021,06,27,04,35,23.70
2021,06,27,04,36,23.70
2021,06,27,04,37,23.70
2021,06,27,04,38,23.70
2021,06,27,04,39,23.60
2021,06,27,04,40,23.60
2021,06,27,04,41,23.60
2021,06,27,04,42,23.60
2021,06,27,04,43,23.50
2021,06,27,04,44,23.50
2021,06,27,04,45,23.40
2021,06,27,04,46,23.40
2021,06,27,04,47,23.40
2021,06,27,04,48,23.40
2021,06,27,04,49,23.30
2021,06,27,04,50,23.30
2021,06,27,04,51,23.30
2021,06,27,04,52,23.20
2021,06,27,04,53,23.20
2021,06,27,04,54,23.20
2021,06,27,04,55,23.20
2021,06,27,04,56,23.20
2021,06,27,04,57,23.10
2021,06,27,04,58,23.10
2021,06,27,04,59,23.10
2021,06,27,05,00,23.10
2021,06,27,05,01,23.00
2021,06,27,05,02,23.00
2021,06,27,05,03,23.00
2021,06,27,05,04,23.00
2021,06,27,05,05,22.90
2021,06,27,05,06,22.90
2021,06,27,05,07,22.90
2021,06,27,05,08,22.90
2021,06,27,05,09,22.90
2021,06,27,05,10,22.80
2021,06,27,05,11,22.80
2021,06,27,05,12,22.80
2021,06,27,05,13,22.80
2021,06,27,05,14,22.80
2021,06,27,05,15,22.80
2021,06,27,05,16,22.80
2021,06,27,05,17,22.80
2021,06,27,05,18,22.80
2021,06,27,05,19,22.70
2021,06,27,05,20,22.70
2021,06,27,05,21,22.70
2021,06,27,05,22,22.70
2021,06,27,05,23,22.70
2021,06,27,05,24,22.70
2021,06,27,05,25,22.60
2021,06,27,05,26,22.60
2021,06,27,05,27,22.60
2021,06,27,05,28,22.60
2021,06,27,05,29,22.60
2021,06,27,05,30,22.60
2021,06,27,05,31,22.60
2021,06,27,05,32,22.60
2021,06,27,05,33,22.60
2021,06,27,05,34,22.60
2021,06,27,05,35,22.60
2021,06,27,05,36,22.60
2021,06,27,05,37,22.60
2021,06,27,05,38,22.60
2021,06,27,05,39,22.60
2021,06,27,05,40,22.60
2021,06,27,05,41,22.60
2021,06,27,05,42,22.60
2021,06,27,05,43,22.60
2021,06,27,05,44,22.60
2021,06,27,05,45,22.60
2021,06,27,05,46,22.70
2021,06,27,05,47,22.70
2021,06,27,05,48,22.70
2021,06,27,05,49,22.70
2021,06,27,05,50,22.70
2021,06,27,05,51,22.70
2021,06,27,05,52,22.80
2021,06,27,05,53,22.80
2021,06,27,05,54,22.80
2021,06,27,05,55,22.80
2021,06,27,05,56,22.90
2021,06,27,05,57,22.90
2021,06,27,05,58,22.90
2021,06,27,05,59,22.90
2021,06,27,06,00,23.00
2021,06,27,06,01,23.10
2021,06,27,06,02,23.10
2021,06,27,06,03,23.10
2021,06,27,06,04,23.20
2021,06,27,06,05,23.20
2021,06,27,06,06,23.20
2021,06,27,06,07,23.30
2021,06,27,06,08,23.30
2021,06,27,06,09,23.30
2021,06,27,06,10,23.40
2021,06,27,06,11,23.40
2021,06,27,06,12,23.40
2021,06,27,06,13,23.50
2021,06,27,06,14,23.50
2021,06,27,06,15,23.50
2021,06,27,06,16,23.60
2021,06,27,06,17,23.60
2021,06,27,06,18,23.60
2021,06,27,06,19,23.60
2021,06,27,06,20,23.60
2021,06,27,06,21,23.60
2021,06,27,06,22,23.60
2021,06,27,06,23,23.60
2021,06,27,06,24,23.60
2021,06,27,06,25,23.60
2021,06,27,06,26,23.70
2021,06,27,06,27,23.70
2021,06,27,06,28,23.70
2021,06,27,06,29,23.70
2021,06,27,06,30,23.70
2021,06,27,06,31,23.70
2021,06,27,06,32,23.80
2021,06,27,06,33,23.80
2021,06,27,06,34,23.80
2021,06,27,06,35,23.90
2021,06,27,06,36,23.90
2021,06,27,06,37,24.00
2021,06,27,06,38,24.00
2021,06,27,06,39,24.10
2021,06,27,06,40,24.10
2021,06,27,06,41,24.10
2021,06,27,06,42,24.20
2021,06,27,06,43,24.20
2021,06,27,06,44,24.20
2021,06,27,06,45,24.30
2021,06,27,06,46,24.30
2021,06,27,06,47,24.30
2021,06,27,06,48,24.40
2021,06,27,06,49,24.40
2021,06,27,06,50,24.40
2021,06,27,06,51,24.50
2021,06,27,06,52,24.50
2021,06,27,06,53,24.60
2021,06,27,06,54,24.60
2021,06,27,06,55,24.70
2021,06,27,06,56,24.70
2021,06,27,06,57,24.70
2021,06,27,06,58,24.80
2021,06,27,06,59,24.80
2021,06,27,07,00,24.90
2021,06,27,07,01,24.90
2021,06,27,07,02,25.00
2021,06,27,07,03,25.00
2021,06,27,07,04,25.10
2021,06,27,07,05,25.10
2021,06,27,07,06,25.20
2021,06,27,07,07,25.20
2021,06,27,07,08,25.30
2021,06,27,07,09,25.40
2021,06,27,07,10,25.50
2021,06,27,07,11,25.60
2021,06,27,07,12,25.60
2021,06,27,07,13,25.70
2021,06,27,07,14,25.80
2021,06,27,07,15,25.90
2021,06,27,07,16,25.90
2021,06,27,07,17,26.00
2021,06,27,07,18,26.10
2021,06,27,07,19,26.10
2021,06,27,07,20,26.20
2021,06,27,07,21,26.20
2021,06,27,07,22,26.30
2021,06,27,07,23,26.30
2021,06,27,07,24,26.30
2021,06,27,07,25,26.30
2021,06,27,07,26,26.40
2021,06,27,07,27,26.40
2021,06,27,07,28,26.40
2021,06,27,07,29,26.50
2021,06,27,07,30,26.50
2021,06,27,07,31,26.60
2021,06,27,07,32,26.60
2021,06,27,07,33,26.60
2021,06,27,07,34,26.60
2021,06,27,07,35,26.70
2021,06,27,07,36,26.70
2021,06,27,07,37,26.80
2021,06,27,07,38,26.80
2021,06,27,07,39,26.80
2021,06,27,07,40,26.90
2021,06,27,07,41,26.90
2021,06,27,07,42,27.00
2021,06,27,07,43,27.00
2021,06,27,07,44,27.10
2021,06,27,07,45,27.10
2021,06,27,07,46,27.20
2021,06,27,07,47,27.20
2021,06,27,07,48,27.20
2021,06,27,07,49,27.30
2021,06,27,07,50,27.30
2021,06,27,07,51,27.30
2021,06,27,07,52,27.40
2021,06,27,07,53,27.40
2021,06,27,07,54,27.40
2021,06,27,07,55,27.50
2021,06,27,07,56,27.50
2021,06,27,07,57,27.50
2021,06,27,07,58,27.60
2021,06,27,07,59,27.60
2021,06,27,08,00,27.60
2021,06,27,08,01,27.60
2021,06,27,08,02,27.60
2021,06,27,08,03,27.60
2021,06,27,08,04,27.60
2021,06,27,08,05,27.60
2021,06,27,08,06,27.60
2021,06,27,08,07,27.50
2021,06,27,08,08,27.40
2021,06,27,08,09,27.40
2021,06,27,08,10,27.40
2021,06,27,08,11,27.30
2021,06,27,08,12,27.30
2021,06,27,08,13,27.30
2021,06,27,08,14,27.30
2021,06,27,08,15,27.30
2021,06,27,08,16,27.30
2021,06,27,08,17,27.30
2021,06,27,08,18,27.30
2021,06,27,08,19,27.40
2021,06,27,08,20,27.40
2021,06,27,08,21,27.40
2021,06,27,08,22,27.50
2021,06,27,08,23,27.50
2021,06,27,08,24,27.50
2021,06,27,08,25,27.60
2021,06,27,08,26,27.60
2021,06,27,08,27,27.60
2021,06,27,08,28,27.60
2021,06,27,08,29,27.50
2021,06,27,08,30,27.50
2021,06,27,08,31,27.40
2021,06,27,08,32,27.40
2021,06,27,08,33,27.40
2021,06,27,08,34,27.40
2021,06,27,08,35,27.40
2021,06,27,08,36,27.30
2021,06,27,08,37,27.30
2021,06,27,08,38,27.30
2021,06,27,08,39,27.30
2021,06,27,08,40,27.30
2021,06,27,08,41,27.30
2021,06,27,08,42,27.40
2021,06,27,08,43,27.40
2021,06,27,08,44,27.40
2021,06,27,08,45,27.40
2021,06,27,08,46,27.50
2021,06,27,08,47,27.50
2021,06,27,08,48,27.50
2021,06,27,08,49,27.60
2021,06,27,08,50,27.60
2021,06,27,08,51,27.60
2021,06,27,08,52,27.60
2021,06,27,08,53,27.60
2021,06,27,08,54,27.60
2021,06,27,08,55,27.60
2021,06,27,08,56,27.60
2021,06,27,08,57,27.60
2021,06,27,08,58,27.60
2021,06,27,08,59,27.60
2021,06,27,09,00,27.60
2021,06,27,09,01,27.60
2021,06,27,09,02,27.60
2021,06,27,09,03,27.70
2021,06,27,09,04,27.70
2021,06,27,09,05,27.70
2021,06,27,09,06,27.70
2021,06,27,09,07,27.80
2021,06,27,09,08,27.80
2021,06,27,09,09,27.80
2021,06,27,09,10,27.80
2021,06,27,09,11,27.80
2021,06,27,09,12,27.90
2021,06,27,09,13,27.90
2021,06,27,09,14,28.00
2021,06,27,09,15,28.00
2021,06,27,09,16,28.10
2021,06,27,09,17,28.10
2021,06,27,09,18,28.20
2021,06,27,09,19,28.30
2021,06,27,09,20,28.30
2021,06,27,09,21,28.30
2021,06,27,09,22,28.30
2021,06,27,09,23,28.30
2021,06,27,09,24,28.30
2021,06,27,09,25,28.30
2021,06,27,09,26,28.30
2021,06,27,09,27,28.30
2021,06,27,09,28,28.30
2021,06,27,09,29,28.30
2021,06,27,09,30,28.30
2021,06,27,09,31,28.30
2021,06,27,09,32,28.20
2021,06,27,09,33,28.20
2021,06,27,09,34,28.20
2021,06,27,09,35,28.10
2021,06,27,09,36,28.10
2021,06,27,09,37,28.10
2021,06,27,09,38,28.20
2021,06,27,09,39,28.10
2021,06,27,09,40,28.10
2021,06,27,09,41,28.10
2021,06,27,09,42,28.00
2021,06,27,09,43,28.00
2021,06,27,09,44,28.00
2021,06,27,09,45,28.00
2021,06,27,09,46,28.10
2021,06,27,09,47,28.10
2021,06,27,09,48,28.10
2021,06,27,09,49,28.10
2021,06,27,09,50,28.10
2021,06,27,09,51,28.10
2021,06,27,09,52,28.10
2021,06,27,09,53,28.20
2021,06,27,09,54,28.30
2021,06,27,09,55,28.40
2021,06,27,09,56,28.50
2021,06,27,09,57,28.60
2021,06,27,09,58,28.70
2021,06,27,09,59,28.70
2021,06,27,10,00,28.80
2021,06,27,10,01,28.80
2021,06,27,10,02,28.90
2021,06,27,10,03,29.00
2021,06,27,10,04,29.10
2021,06,27,10,05,29.20
2021,06,27,10,06,29.30
2021,06,27,10,07,29.40
2021,06,27,10,08,29.50
2021,06,27,10,09,29.60
2021,06,27,10,10,29.80
2021,06,27,10,11,29.80
2021,06,27,10,12,29.90
2021,06,27,10,13,29.90
2021,06,27,10,14,30.00
2021,06,27,10,15,30.00
2021,06,27,10,16,30.10
2021,06,27,10,17,30.10
2021,06,27,10,18,30.20
2021,06,27,10,19,30.20
2021,06,27,10,20,30.20
2021,06,27,10,21,30.20
2021,06,27,10,22,30.20
2021,06,27,10,23,30.20
2021,06,27,10,24,30.20
2021,06,27,10,25,30.20
2021,06,27,10,26,30.20
2021,06,27,10,27,30.30
2021,06,27,10,28,30.30
2021,06,27,10,29,30.40
2021,06,27,10,30,30.50
2021,06,27,10,31,30.60
2021,06,27,10,32,30.60
2021,06,27,10,33,30.60
2021,06,27,10,34,30.60
2021,06,27,10,35,30.60
2021,06,27,10,36,30.60
2021,06,27,10,37,30.60
2021,06,27,10,38,30.70
2021,06,27,10,39,30.70
2021,06,27,10,40,30.80
2021,06,27,10,41,30.80
2021,06,27,10,42,30.80
2021,06,27,10,43,30.80
2021,06,27,10,44,30.80
2021,06,27,10,45,30.80
2021,06,27,10,46,30.80
2021,06,27,10,47,30.90
2021,06,27,10,48,31.00
2021,06,27,10,49,31.00
2021,06,27,10,50,31.00
2021,06,27,10,51,31.10
2021,06,27,10,52,31.10
2021,06,27,10,53,31.10
2021,06,27,10,54,31.10
2021,06,27,10,55,31.20
2021,06,27,10,56,31.20
2021,06,27,10,57,31.20
2021,06,27,10,58,31.20
2021,06,27,10,59,31.30
2021,06,27,11,00,31.30
2021,06,27,11,01,31.40
2021,06,27,11,02,31.40
2021,06,27,11,03,31.50
2021,06,27,11,04,31.60
2021,06,27,11,05,31.70
2021,06,27,11,06,31.70
2021,06,27,11,07,31.80
2021,06,27,11,08,31.80
2021,06,27,11,09,31.80
2021,06,27,11,10,31.80
2021,06,27,11,11,31.80
2021,06,27,11,12,31.80
2021,06,27,11,13,31.80
2021,06,27,11,14,31.80
2021,06,27,11,15,32.00
2021,06,27,11,16,32.10
2021,06,27,11,17,32.30
2021,06,27,11,18,32.40
2021,06,27,11,19,32.50
2021,06,27,11,20,32.50
2021,06,27,11,21,32.50
2021,06,27,11,22,32.40
2021,06,27,11,23,32.40
2021,06,27,11,24,32.40
2021,06,27,11,25,32.40
2021,06,27,11,26,32.40
2021,06,27,11,27,32.40
2021,06,27,11,28,32.40
2021,06,27,11,29,32.40
2021,06,27,11,30,32.40
2021,06,27,11,31,32.40
2021,06,27,11,32,32.50
2021,06,27,11,33,32.50
2021,06,27,11,34,32.60
2021,06,27,11,35,32.60
2021,06,27,11,36,32.60
2021,06,27,11,37,32.50
2021,06,27,11,38,32.50
2021,06,27,11,39,32.40
2021,06,27,11,40,32.30
2021,06,27,11,41,32.30
2021,06,27,11,42,32.20
2021,06,27,11,43,32.10
2021,06,27,11,44,32.00
2021,06,27,11,45,32.00
2021,06,27,11,46,31.90
2021,06,27,11,47,31.90
2021,06,27,11,48,31.90
2021,06,27,11,49,31.90
2021,06,27,11,50,31.90
2021,06,27,11,51,31.90
2021,06,27,11,52,31.90
2021,06,27,11,53,31.90
2021,06,27,11,54,31.90
2021,06,27,11,55,32.00
2021,06,27,11,56,32.00
2021,06,27,11,57,32.00
2021,06,27,11,58,32.00
2021,06,27,11,59,32.10
2021,06,27,12,00,32.10
2021,06,27,12,01,32.20
2021,06,27,12,02,32.20
2021,06,27,12,03,32.10
2021,06,27,12,04,32.10
2021,06,27,12,05,32.00
2021,06,27,12,06,32.00
2021,06,27,12,07,32.00
2021,06,27,12,08,32.00
2021,06,27,12,09,32.00
2021,06,27,12,10,32.00
2021,06,27,12,11,32.00
2021,06,27,12,12,32.00
2021,06,27,12,13,31.90
2021,06,27,12,14,31.90
2021,06,27,12,15,31.90
2021,06,27,12,16,31.90
2021,06,27,12,17,31.90
2021,06,27,12,18,32.00
2021,06,27,12,19,32.00
2021,06,27,12,20,32.00
2021,06,27,12,21,32.00
2021,06,27,12,22,32.10
2021,06,27,12,23,32.10
2021,06,27,12,24,32.10
2021,06,27,12,25,32.10
2021,06,27,12,26,32.10
2021,06,27,12,27,32.10
2021,06,27,12,28,32.20
2021,06,27,12,29,32.30
2021,06,27,12,30,32.50
2021,06,27,12,31,32.60
2021,06,27,12,32,32.60
2021,06,27,12,33,32.60
2021,06,27,12,34,32.60
2021,06,27,12,35,32.60
2021,06,27,12,36,32.70
2021,06,27,12,37,32.70
2021,06,27,12,38,32.80
2021,06,27,12,39,32.80
2021,06,27,12,40,32.90
2021,06,27,12,41,32.90
2021,06,27,12,42,32.90
2021,06,27,12,43,32.80
2021,06,27,12,44,32.80
2021,06,27,12,45,32.80
2021,06,27,12,46,32.80
2021,06,27,12,47,32.80
2021,06,27,12,48,32.90
2021,06,27,12,49,33.00
2021,06,27,12,50,33.10
2021,06,27,12,51,33.10
2021,06,27,12,52,33.00
2021,06,27,12,53,33.00
2021,06,27,12,54,33.00
2021,06,27,12,55,33.00
2021,06,27,12,56,33.10
2021,06,27,12,57,33.10
2021,06,27,12,58,33.10
2021,06,27,12,59,33.10
2021,06,27,13,00,33.10
2021,06,27,13,01,33.10
2021,06,27,13,02,33.20
2021,06,27,13,03,33.10
2021,06,27,13,04,33.10
2021,06,27,13,05,33.10
2021,06,27,13,06,33.10
2021,06,27,13,07,33.20
2021,06,27,13,08,33.10
2021,06,27,13,09,33.20
2021,06,27,13,10,33.20
2021,06,27,13,11,33.20
2021,06,27,13,12,33.20
2021,06,27,13,13,33.20
2021,06,27,13,14,33.20
2021,06,27,13,15,33.30
2021,06,27,13,16,33.20
2021,06,27,13,17,33.30
2021,06,27,13,18,33.30
2021,06,27,13,19,33.30
2021,06,27,13,20,33.40
2021,06,27,13,21,33.50
2021,06,27,13,22,33.60
2021,06,27,13,23,33.70
2021,06,27,13,24,33.70
2021,06,27,13,25,33.70
2021,06,27,13,26,33.70
2021,06,27,13,27,33.70
2021,06,27,13,28,33.70
2021,06,27,13,29,33.70
2021,06,27,13,30,33.70
2021,06,27,13,31,33.70
2021,06,27,13,32,33.70
2021,06,27,13,33,33.80
2021,06,27,13,34,33.80
2021,06,27,13,35,33.80
2021,06,27,13,36,33.80
2021,06,27,13,37,33.80
2021,06,27,13,38,34.00
2021,06,27,13,39,34.10
2021,06,27,13,40,34.30
2021,06,27,13,41,34.40
2021,06,27,13,42,34.50
2021,06,27,13,43,34.60
2021,06,27,13,44,34.60
2021,06,27,13,45,34.60
2021,06,27,13,46,34.70
2021,06,27,13,47,34.70
2021,06,27,13,48,34.70
2021,06,27,13,49,34.70
2021,06,27,13,50,34.70
2021,06,27,13,51,34.60
2021,06,27,13,52,34.60
2021,06,27,13,53,34.50
2021,06,27,13,54,34.40
2021,06,27,13,55,34.40
2021,06,27,13,56,34.40
2021,06,27,13,57,34.40
2021,06,27,13,58,34.40
2021,06,27,13,59,34.40
2021,06,27,14,00,34.40
2021,06,27,14,01,34.50
2021,06,27,14,02,34.50
2021,06,27,14,03,34.50
2021,06,27,14,04,34.50
2021,06,27,14,05,34.60
2021,06,27,14,06,34.60
2021,06,27,14,07,34.50
2021,06,27,14,08,34.50
2021,06,27,14,09,34.50
2021,06,27,14,10,34.50
2021,06,27,14,11,34.50
2021,06,27,14,12,34.60
2021,06,27,14,13,34.60
2021,06,27,14,14,34.70
2021,06,27,14,15,34.80
2021,06,27,14,16,34.90
2021,06,27,14,17,34.90
2021,06,27,14,18,34.90
2021,06,27,14,19,35.00
2021,06,27,14,20,35.00
2021,06,27,14,21,35.10
2021,06,27,14,22,35.10
2021,06,27,14,23,35.10
2021,06,27,14,24,35.00
2021,06,27,14,25,35.00
2021,06,27,14,26,35.00
2021,06,27,14,27,35.00
2021,06,27,14,28,35.00
2021,06,27,14,29,35.00
2021,06,27,14,30,34.90
2021,06,27,14,31,34.90
2021,06,27,14,32,35.00
2021,06,27,14,33,35.00
2021,06,27,14,34,35.00
2021,06,27,14,35,35.10
2021,06,27,14,36,35.10
2021,06,27,14,37,35.10
2021,06,27,14,38,35.10
2021,06,27,14,39,35.10
2021,06,27,14,40,35.20
2021,06,27,14,41,35.20
2021,06,27,14,42,35.20
2021,06,27,14,43,35.20
2021,06,27,14,44,35.20
2021,06,27,14,45,35.10
2021,06,27,14,46,35.10
2021,06,27,14,47,35.10
2021,06,27,14,48,35.10
2021,06,27,14,49,35.10
2021,06,27,14,50,35.10
2021,06,27,14,51,35.10
2021,06,27,14,52,35.10
2021,06,27,14,53,35.10
2021,06,27,14,54,35.00
2021,06,27,14,55,35.00
2021,06,27,14,56,35.00
2021,06,27,14,57,35.00
2021,06,27,14,58,35.00
2021,06,27,14,59,34.90
2021,06,27,15,00,34.90
2021,06,27,15,01,34.90
2021,06,27,15,02,34.90
2021,06,27,15,03,34.90
2021,06,27,15,04,34.90
2021,06,27,15,05,35.00
2021,06,27,15,06,35.10
2021,06,27,15,07,35.20
2021,06,27,15,08,35.30
2021,06,27,15,09,35.30
2021,06,27,15,10,35.40
2021,06,27,15,11,35.40
2021,06,27,15,12,35.40
2021,06,27,15,13,35.50
2021,06,27,15,14,35.50
2021,06,27,15,15,35.50
2021,06,27,15,16,35.40
2021,06,27,15,17,35.40
2021,06,27,15,18,35.40
2021,06,27,15,19,35.40
2021,06,27,15,20,35.40
2021,06,27,15,21,35.30
2021,06,27,15,22,35.30
2021,06,27,15,23,35.30
2021,06,27,15,24,35.30
2021,06,27,15,25,35.30
2021,06,27,15,26,35.30
2021,06,27,15,27,35.30
2021,06,27,15,28,35.30
2021,06,27,15,29,35.30
2021,06,27,15,30,35.30
2021,06,27,15,31,35.30
2021,06,27,15,32,35.30
2021,06,27,15,33,35.30
2021,06,27,15,34,35.30
2021,06,27,15,35,35.40
2021,06,27,15,36,35.40
2021,06,27,15,37,35.40
2021,06,27,15,38,35.40
2021,06,27,15,39,35.30
2021,06,27,15,40,35.30
2021,06,27,15,41,35.40
2021,06,27,15,42,35.40
2021,06,27,15,43,35.50
2021,06,27,15,44,35.60
2021,06,27,15,45,35.70
2021,06,27,15,46,35.80
2021,06,27,15,47,35.90
2021,06,27,15,48,35.90
2021,06,27,15,49,35.90
2021,06,27,15,50,35.80
2021,06,27,15,51,35.80
2021,06,27,15,52,35.90
2021,06,27,15,53,35.90
2021,06,27,15,54,35.90
2021,06,27,15,55,35.90
2021,06,27,15,56,35.90
2021,06,27,15,57,35.90
2021,06,27,15,58,35.90
2021,06,27,15,59,35.90
2021,06,27,16,00,35.90
2021,06,27,16,01,35.90
2021,06,27,16,02,35.90
2021,06,27,16,03,36.00
2021,06,27,16,04,36.00
2021,06,27,16,05,36.00
2021,06,27,16,06,36.00
2021,06,27,16,07,36.00
2021,06,27,16,08,36.10
2021,06,27,16,09,36.10
2021,06,27,16,10,36.10
2021,06,27,16,11,36.10
2021,06,27,16,12,36.10
2021,06,27,16,13,36.00
2021,06,27,16,14,36.00
2021,06,27,16,15,36.00
2021,06,27,16,16,35.90
2021,06,27,16,17,35.90
2021,06,27,16,18,36.00
2021,06,27,16,19,36.00
2021,06,27,16,20,36.00
2021,06,27,16,21,36.00
2021,06,27,16,22,36.00
2021,06,27,16,23,36.00
2021,06,27,16,24,36.00
2021,06,27,16,25,36.00
2021,06,27,16,26,36.00
2021,06,27,16,27,36.00
2021,06,27,16,28,35.90
2021,06,27,16,29,35.90
2021,06,27,16,30,35.90
2021,06,27,16,31,35.90
2021,06,27,16,32,35.90
2021,06,27,16,33,35.90
2021,06,27,16,34,36.00
2021,06,27,16,35,36.00
2021,06,27,16,36,36.10
2021,06,27,16,37,36.20
2021,06,27,16,38,36.30
2021,06,27,16,39,36.30
2021,06,27,16,40,36.30
2021,06,27,16,41,36.30
2021,06,27,16,42,36.30
2021,06,27,16,43,36.30
2021,06,27,16,44,36.30
2021,06,27,16,45,36.20
2021,06,27,16,46,36.20
2021,06,27,16,47,36.20
2021,06,27,16,48,36.10
2021,06,27,16,49,36.10
2021,06,27,16,50,36.10
2021,06,27,16,51,36.10
2021,06,27,16,52,36.10
2021,06,27,16,53,36.10
2021,06,27,16,54,36.10
2021,06,27,16,55,36.10
2021,06,27,16,56,36.10
2021,06,27,16,57,36.00
2021,06,27,16,58,36.00
2021,06,27,16,59,35.90
2021,06,27,17,00,35.90
2021,06,27,17,01,35.80
2021,06,27,17,02,35.80
2021,06,27,17,03,35.80
2021,06,27,17,04,35.80
2021,06,27,17,05,35.80
2021,06,27,17,06,35.80
2021,06,27,17,07,35.80
2021,06,27,17,08,35.90
2021,06,27,17,09,35.90
2021,06,27,17,10,35.90
2021,06,27,17,11,35.90
2021,06,27,17,12,35.90
2021,06,27,17,13,35.90
2021,06,27,17,14,35.90
2021,06,27,17,15,36.00
2021,06,27,17,16,36.10
2021,06,27,17,17,36.10
2021,06,27,17,18,36.20
2021,06,27,17,19,36.20